[[{"header":{"parameterUnit":"m.s-1","parameterCategory":1,"la1":30.2991,"la2":30.254,"lo1":-89.0895,"lo2":-89.0444,"dy":0.0017,"dx":0.0017,"nx":28,"ny":28,"refTime":"2024-12-04T09:00:00:Z","depth":0,"parameterNumber":2,"parameterNumberName":"U-component_of_WINDS"},"data":[0,0,0,0,0,0,0,0,0,0,0,0,0,0,0,0,0,0,0,0,0,0,0,0,0,0,0,0,0,0,0,0,0,0,0,0,0,0,0,0,0,0,0,0,0,0,0,0,0,0,0,0,0,0,0,0,0,0,0.7262,0.7262,0,0.7313,0.7313,0.7314,0.7273,0.7272,0.727,0.7268,0.7325,0.7328,0.7331,0,0,0,0,0,0,0,0,0,0,0,0,0,0.7137,0.714,0.7262,0.7262,0.7263,0.7313,0.7313,0.7314,0.7274,0.7272,0.7269,0.7268,0.7324,0.7328,0.7332,0,0,0,0,0,0,0,0,0,0,0,0,0,0.719,0.7141,0.7262,0.7249,0.7248,0.7312,0.7313,0.7314,0.7274,0.7272,0.7269,0.7267,0.7323,0.7327,0.7332,0.7413,0,0,0.7346,0.7348,0,0,0,0,0,0,0,0,0.7187,0.7195,0.725,0.725,0.7249,0.7284,0.729,0.7348,0.7275,0.7264,0.7268,0.7265,0.7314,0.7319,0.7334,0.7416,0.7418,0.7347,0.735,0.7352,0.7353,0,0,0,0,0,0,0,0.7184,0.7192,0.7282,0.7251,0.725,0.7243,0.7248,0.7301,0.7303,0.7265,0.7262,0.7269,0.7313,0.733,0.7336,0.7419,0.7347,0.7351,0.7354,0.7356,0.7575,0.7578,0,0,0,0,0,0,0.718,0.719,0.728,0.7283,0.7211,0.7247,0.7252,0.7275,0.7303,0.7304,0.7271,0.7267,0.7323,0.733,0.7337,0.7438,0.7352,0.7356,0.7359,0.7572,0.7576,0.7579,0,0,0,0,0,0,0.7178,0.7189,0.7278,0.7236,0.7247,0.7252,0.7278,0.7278,0.7295,0.7307,0.7308,0.7287,0.7322,0.7331,0.7396,0.7439,0.7358,0.7362,0.7569,0.7574,0.7578,0.7637,0,0,0,0,0,0,0.7174,0.7188,0.7217,0.7237,0.7249,0.7333,0.7281,0.7281,0.7302,0.7297,0.7322,0.7324,0.732,0.7389,0.74,0.7444,0.7366,0.7565,0.7571,0.7576,0.7631,0.7643,0.7653,0,0,0,0,0,0.717,0.7231,0.7218,0.723,0.7285,0.7336,0.7343,0.7336,0.7306,0.7337,0.7345,0.7323,0.7432,0.7396,0.7408,0.7454,0.7562,0.7569,0.7576,0.7626,0.7641,0.7653,0,0,0,0,0,0,0.7217,0.7234,0.7219,0.7288,0.7311,0.7329,0.7367,0.7351,0.7383,0.7377,0.7369,0.7375,0.7444,0.7455,0.7414,0.7537,0.7493,0.7503,0.7527,0.7541,0.7551,0.7548,0.737,0,0,0,0,0,0.7235,0.7273,0.7286,0.7346,0.7358,0.7361,0.7383,0.7376,0.7399,0.7409,0.7422,0.7448,0.7488,0.7515,0.7552,0.7632,0.764,0.7671,0.7682,0.7691,0.77,0.7748,0.7763,0.7602,0.7602,0.7602,0,0,0.7273,0.7287,0.7312,0.7356,0.7373,0.7415,0.7369,0.7415,0.7447,0.7416,0.7479,0.749,0.7518,0.7592,0.7626,0.7604,0.7746,0.7699,0.7706,0.7711,0.7757,0.7772,0.7786,0.7606,0.7605,0.7605,0,0,0.7365,0.7378,0.7431,0.7449,0.7475,0.7477,0.749,0.7512,0.7518,0.758,0.7559,0.7599,0.7667,0.769,0.771,0.7816,0.7799,0.7828,0.7886,0.7933,0.7946,0.7957,0.7999,0.8013,0.7837,0.7837,0.7837,0,0.741,0.7471,0.7461,0.751,0.7532,0.7505,0.7562,0.758,0.7618,0.7635,0.761,0.7699,0.7715,0.7797,0.7823,0.7839,0.7857,0.7825,0.7944,0.7956,0.7966,0.8006,0.8021,0.7841,0.784,0.784,0.7839,0,0.7527,0.757,0.761,0.7647,0.7674,0.7726,0.7727,0.7756,0.7747,0.7753,0.782,0.784,0.7883,0.7902,0.7894,0.7984,0.797,0.7945,0.7901,0.7986,0.8023,0.8038,0.7846,0.7845,0.7843,0.7843,0,0,0.7648,0.7681,0.7696,0.7715,0.7743,0.7778,0.7831,0.7872,0.7899,0.7927,0.7974,0.8035,0.8013,0.8036,0.8031,0.8072,0.816,0.8043,0.8044,0.8067,0.8266,0.8287,0.8304,0.8149,0.8151,0.8154,0.8265,0,0.7744,0.7834,0.7829,0.7915,0.7957,0.7935,0.7982,0.8007,0.8015,0.8054,0.8064,0.8108,0.8074,0.8089,0.8128,0.8141,0.8201,0.8133,0.8196,0.8198,0.8192,0.8323,0.8344,0.8448,0.8279,0.8281,0.8283,0,0.7867,0.7899,0.799,0.8016,0.8034,0.8075,0.8116,0.8152,0.8182,0.8185,0.8213,0.8203,0.8261,0.8215,0.8297,0.8251,0.8277,0.8288,0.8292,0.8299,0.8247,0.8337,0.848,0.8497,0.8305,0.8304,0.8302,0,0.795,0.8017,0.808,0.8096,0.8128,0.8159,0.8174,0.82,0.8227,0.8263,0.8281,0.8324,0.8348,0.8383,0.8387,0.8352,0.8471,0.8424,0.8479,0.8479,0.8506,0.8505,0.8659,0.8519,0.8519,0.8518,0.8518,0,0.8059,0.8116,0.8119,0.8158,0.8224,0.8219,0.8284,0.8296,0.8321,0.8365,0.8349,0.8391,0.8391,0.8436,0.8439,0.851,0.852,0.8527,0.8528,0.853,0.853,0.8549,0.8543,0.8522,0.8521,0.8521,0.852,0,0.8163,0.8167,0.8236,0.8261,0.8269,0.8316,0.8339,0.8378,0.8386,0.8443,0.8456,0.8469,0.8521,0.8527,0.8588,0.859,0.8677,0.8668,0.8666,0.8666,0.8722,0.8718,0.8895,0.892,0.8761,0.8763,0.8764,0,0.8233,0.8277,0.8307,0.8335,0.8352,0.8397,0.8425,0.8423,0.8453,0.8493,0.8529,0.8579,0.862,0.8705,0.8722,0.877,0.8764,0.8823,0.8772,0.8774,0.877,0.8768,0.8775,0.8834,0.8836,0.8837,0.8838,0,0.8359,0.8359,0.8399,0.8441,0.8475,0.8508,0.8539,0.8564,0.8567,0.8602,0.8655,0.8687,0.875,0.8802,0.885,0.8869,0.8857,0.8854,0.887,0.8874,0.8873,0.8879,0.8697,0.8851,0.8849,0.8848,0.8848,0.8847,0.845,0.849,0.8518,0.8565,0.8588,0.8619,0.8659,0.8672,0.8715,0.8766,0.8763,0.8823,0.8856,0.8919,0.8942,0.8992,0.8972,0.8994,0.9001,0.9007,0.9015,0.8864,0.9,0.9,0.8999,0.8999,0.8999,0,0.8578,0.8596,0.8638,0.8683,0.8721,0.8703,0.8738,0.8772,0.8824,0.8856,0.8896,0.896,0.9012,0.9034,0.9086,0.9121,0.9117,0.9135,0.9134,0.914,0.9026,0.9009,0.9138,0.9138,0.9138,0.9138,0.9138,0.9138,0.8649,0.8716,0.8721,0.8802,0.882,0.8877,0.8899,0.8929,0.8955,0.9026,0.9069,0.9082,0.9112,0.9166,0.9215,0.922,0.9242,0.9264,0.9267,0.9161,0.9147,0.9134,0.9117,0.9267,0.9268,0.9377,0.9378,0.9378]},{"header":{"parameterUnit":"m.s-1","parameterCategory":1,"la1":30.2991,"la2":30.254,"lo1":-89.0895,"lo2":-89.0444,"dy":0.0017,"dx":0.0017,"nx":28,"ny":28,"refTime":"2024-12-04T09:00:00:Z","depth":0,"parameterNumber":3,"parameterNumberName":"V-component_of_WINDS"},"data":[0,0,0,0,0,0,0,0,0,0,0,0,0,0,0,0,0,0,0,0,0,0,0,0,0,0,0,0,0,0,0,0,0,0,0,0,0,0,0,0,0,0,0,0,0,0,0,0,0,0,0,0,0,0,0,0,0,0,-7.0965,-7.0966,0,-7.1065,-7.1066,-7.1067,-7.1039,-7.1037,-7.1035,-7.1033,-7.1128,-7.1132,-7.1137,0,0,0,0,0,0,0,0,0,0,0,0,0,-7.0743,-7.0747,-7.0965,-7.0966,-7.0967,-7.1065,-7.1066,-7.1067,-7.104,-7.1037,-7.1035,-7.1032,-7.1127,-7.1132,-7.1137,0,0,0,0,0,0,0,0,0,0,0,0,0,-7.0841,-7.0749,-7.0964,-7.0965,-7.0966,-7.1064,-7.1066,-7.1068,-7.104,-7.1037,-7.1034,-7.1031,-7.1125,-7.1131,-7.1138,-7.1239,0,0,-7.1158,-7.1161,0,0,0,0,0,0,0,0,-7.0835,-7.0849,-7.0964,-7.0965,-7.0967,-7.1037,-7.1023,-7.1125,-7.1041,-7.1012,-7.1033,-7.103,-7.11,-7.1108,-7.1133,-7.1243,-7.1247,-7.1159,-7.1163,-7.1165,-7.1167,0,0,0,0,0,0,0,-7.0828,-7.0844,-7.1004,-7.0966,-7.0967,-7.0958,-7.0969,-7.1042,-7.1071,-7.1014,-7.1012,-7.1025,-7.11,-7.1127,-7.1135,-7.1249,-7.1158,-7.1164,-7.1168,-7.1171,-7.1446,-7.1449,0,0,0,0,0,0,-7.0821,-7.0839,-7.1001,-7.1007,-7.0893,-7.0965,-7.0977,-7.1017,-7.107,-7.1076,-7.1028,-7.1023,-7.1117,-7.1128,-7.1138,-7.1259,-7.1165,-7.1171,-7.1175,-7.1442,-7.1446,-7.145,0,0,0,0,0,0,-7.0817,-7.0836,-7.0997,-7.0923,-7.0942,-7.0972,-7.1018,-7.1021,-7.1048,-7.1081,-7.1085,-7.105,-7.1115,-7.1129,-7.1214,-7.1262,-7.1174,-7.118,-7.1438,-7.1444,-7.1448,-7.1503,0,0,0,0,0,0,-7.0811,-7.0835,-7.0875,-7.0924,-7.0947,-7.1073,-7.1021,-7.1025,-7.106,-7.1056,-7.1103,-7.1108,-7.1114,-7.1205,-7.1221,-7.127,-7.1186,-7.1434,-7.1441,-7.1447,-7.1497,-7.1509,-7.1519,0,0,0,0,0,-7.0803,-7.0884,-7.0877,-7.0897,-7.0998,-7.1076,-7.1089,-7.1096,-7.1064,-7.1104,-7.1125,-7.1106,-7.1255,-7.1214,-7.1232,-7.1283,-7.1431,-7.1439,-7.1446,-7.1492,-7.1507,-7.1519,0,0,0,0,0,0,-7.0837,-7.0891,-7.0883,-7.0984,-7.1026,-7.1071,-7.1121,-7.1112,-7.1162,-7.1155,-7.116,-7.1171,-7.1258,-7.1279,-7.1232,-7.1384,-7.1338,-7.135,-7.1366,-7.1381,-7.1392,-7.1384,-7.1191,0,0,0,0,0,-7.0857,-7.0919,-7.0961,-7.1046,-7.1068,-7.1091,-7.1125,-7.1128,-7.1171,-7.1188,-7.1215,-7.1255,-7.1311,-7.1347,-7.14,-7.15,-7.1509,-7.1545,-7.1556,-7.1565,-7.1574,-7.1628,-7.1644,-7.1475,-7.1475,-7.1475,0,0,-7.0897,-7.0934,-7.0972,-7.1053,-7.1087,-7.1148,-7.1106,-7.1173,-7.1218,-7.1197,-7.128,-7.1301,-7.1346,-7.144,-7.1482,-7.146,-7.1623,-7.1575,-7.1582,-7.1586,-7.1637,-7.1653,-7.1667,-7.148,-7.1479,-7.1478,0,0,-7.1002,-7.1037,-7.1111,-7.1146,-7.1198,-7.1213,-7.1231,-7.1279,-7.1294,-7.1377,-7.1363,-7.1416,-7.1512,-7.1545,-7.1574,-7.1694,-7.1678,-7.1711,-7.1769,-7.1821,-7.1835,-7.1846,-7.1887,-7.1902,-7.172,-7.172,-7.172,0,-7.1044,-7.1139,-7.115,-7.1219,-7.1254,-7.1242,-7.1316,-7.1348,-7.1413,-7.1437,-7.1413,-7.1534,-7.1563,-7.1663,-7.1693,-7.1718,-7.1736,-7.1704,-7.1832,-7.1844,-7.1855,-7.1895,-7.191,-7.1724,-7.1723,-7.1723,-7.1723,0,-7.1188,-7.1255,-7.1308,-7.1375,-7.1416,-7.1487,-7.1507,-7.1547,-7.1547,-7.1564,-7.1649,-7.1685,-7.1745,-7.1769,-7.1768,-7.1869,-7.1854,-7.1831,-7.1785,-7.1875,-7.1912,-7.1927,-7.1729,-7.1728,-7.1726,-7.1726,0,0,-7.1315,-7.1389,-7.1408,-7.1439,-7.1496,-7.1546,-7.1616,-7.1678,-7.1712,-7.1758,-7.1815,-7.1898,-7.1878,-7.1911,-7.1913,-7.196,-7.2051,-7.1931,-7.1932,-7.195,-7.2163,-7.2179,-7.2196,-7.2042,-7.2045,-7.2047,-7.2159,0,-7.1423,-7.155,-7.1562,-7.1674,-7.1734,-7.1724,-7.1785,-7.1826,-7.1844,-7.1896,-7.1916,-7.1974,-7.1944,-7.1963,-7.2009,-7.203,-7.2093,-7.2022,-7.2092,-7.2095,-7.208,-7.2216,-7.2232,-7.2336,-7.2173,-7.2176,-7.2178,0,-7.1566,-7.162,-7.1739,-7.1789,-7.1815,-7.187,-7.1927,-7.1978,-7.2023,-7.2034,-7.2072,-7.2069,-7.2139,-7.2093,-7.2188,-7.214,-7.2169,-7.2184,-7.2188,-7.2193,-7.214,-7.2222,-7.2369,-7.2384,-7.2201,-7.2199,-7.2197,0,-7.1645,-7.1747,-7.1831,-7.1858,-7.1918,-7.1957,-7.1983,-7.2026,-7.2063,-7.2113,-7.2136,-7.2193,-7.2223,-7.2266,-7.2277,-7.2242,-7.2372,-7.2326,-7.238,-7.2379,-7.2405,-7.2403,-7.2557,-7.2428,-7.2428,-7.2428,-7.2427,0,-7.1764,-7.1837,-7.1868,-7.1919,-7.2,-7.2013,-7.2092,-7.2116,-7.2155,-7.2209,-7.2203,-7.2254,-7.2267,-7.232,-7.2329,-7.2406,-7.242,-7.2428,-7.2429,-7.2427,-7.2426,-7.2445,-7.2437,-7.2432,-7.2431,-7.243,-7.2429,0,-7.1864,-7.1889,-7.198,-7.2031,-7.2046,-7.2103,-7.2145,-7.2194,-7.2213,-7.2282,-7.2298,-7.2327,-7.2388,-7.2405,-7.2478,-7.2484,-7.2574,-7.2569,-7.2559,-7.2559,-7.2611,-7.2605,-7.278,-7.2803,-7.2661,-7.2663,-7.2664,0,-7.1938,-7.1994,-7.2052,-7.209,-7.2119,-7.2179,-7.2218,-7.2233,-7.2272,-7.2329,-7.237,-7.2432,-7.2482,-7.2581,-7.2606,-7.2662,-7.2657,-7.2715,-7.2665,-7.2662,-7.2656,-7.2651,-7.2656,-7.2723,-7.2725,-7.2726,-7.2727,0,-7.2065,-7.2074,-7.2131,-7.2193,-7.224,-7.2288,-7.2334,-7.2364,-7.2386,-7.243,-7.2495,-7.2534,-7.261,-7.267,-7.2727,-7.2752,-7.2742,-7.2743,-7.2758,-7.2756,-7.2747,-7.2751,-7.2583,-7.2738,-7.2737,-7.2736,-7.2736,-7.2735,-7.2152,-7.2202,-7.2252,-7.2315,-7.2352,-7.2396,-7.2445,-7.2471,-7.2526,-7.2591,-7.2596,-7.2666,-7.271,-7.2786,-7.2813,-7.2866,-7.2849,-7.2871,-7.2876,-7.2881,-7.2884,-7.2741,-7.2877,-7.2877,-7.2876,-7.2876,-7.2876,0,-7.2278,-7.231,-7.2369,-7.2435,-7.2485,-7.2476,-7.2527,-7.2568,-7.2631,-7.2674,-7.2724,-7.2798,-7.2857,-7.2888,-7.2947,-7.2983,-7.298,-7.2997,-7.2993,-7.2999,-7.2898,-7.2878,-7.2999,-7.2999,-7.2999,-7.2999,-7.2999,-7.2999,-7.2348,-7.2432,-7.2448,-7.2549,-7.258,-7.2651,-7.268,-7.272,-7.2755,-7.2839,-7.2889,-7.291,-7.2948,-7.3009,-7.3062,-7.307,-7.309,-7.311,-7.3115,-7.3019,-7.3006,-7.2994,-7.2976,-7.3115,-7.3115,-7.3211,-7.3212,-7.3213]}]]